Airport Information

KFHR - Friday Harbor Airport

KFHR 251053Z AUTO 35004KT 10SM CLR 06/03 A3010 RMK AO2 SLP193 T00560033


  • General Information

  • Coordinates: N 48°31'18"/ W 123°1'27"
  • Location: N/A
  • Surveyed Elevation: 113 MSL

Operations

Flow Name Active Runways Conditions

Green background denotes normal operations.


Common Frequencies

Callsign Frequency Position Name

More at the Document Center


Charts